Time,TemperatureF,DewpointF,PressureIn,WindDirection,WindDirectionDegrees,WindSpeedMPH,WindSpeedGustMPH,Humidity,HourlyPrecipIn,Conditions,Clouds,dailyrainin,SoftwareType,DateUTC
2013-12-30 00:01:00,13.1,2.1,30.30,North,0,0.0,0.0,61,0.00,,,0.00,WUHU21623XXSP,2013-12-30 06:01:00,
2013-12-30 00:12:00,12.9,1.9,30.30,North,0,0.0,0.0,61,0.00,,,0.00,WUHU21623XXSP,2013-12-30 06:12:00,
2013-12-30 00:17:00,12.7,1.7,30.30,North,0,0.0,0.0,61,0.00,,,0.00,WUHU21623XXSP,2013-12-30 06:17:00,
2013-12-30 00:22:00,12.7,1.7,30.30,North,0,0.0,0.0,61,0.00,,,0.00,WUHU21623XXSP,2013-12-30 06:22:00,
2013-12-30 00:27:00,12.7,1.7,30.30,North,0,0.0,0.0,61,0.00,,,0.00,WUHU21623XXSP,2013-12-30 06:27:00,
2013-12-30 00:32:00,12.6,1.6,30.29,North,0,0.0,0.0,61,0.00,,,0.00,WUHU21623XXSP,2013-12-30 06:32:00,
2013-12-30 00:37:00,12.6,1.6,30.29,North,0,0.0,0.0,61,0.00,,,0.00,WUHU21623XXSP,2013-12-30 06:37:00,
2013-12-30 00:42:00,12.4,1.4,30.29,North,0,0.0,0.0,61,0.00,,,0.00,WUHU21623XXSP,2013-12-30 06:42:00,
2013-12-30 00:47:00,12.4,1.7,30.30,North,0,0.0,0.0,62,0.00,,,0.00,WUHU21623XXSP,2013-12-30 06:47:00,
2013-12-30 00:52:00,12.2,1.5,30.29,North,0,0.0,0.0,62,0.00,,,0.00,WUHU21623XXSP,2013-12-30 06:52:00,
2013-12-30 00:57:00,12.2,1.5,30.30,North,0,0.0,0.0,62,0.00,,,0.00,WUHU21623XXSP,2013-12-30 06:57:00,
2013-12-30 01:02:00,12.2,1.5,30.30,North,0,0.0,0.0,62,0.00,,,0.00,WUHU21623XXSP,2013-12-30 07:02:00,
2013-12-30 01:12:00,12.0,1.4,30.30,North,0,0.0,0.0,62,0.00,,,0.00,WUHU21623XXSP,2013-12-30 07:12:00,
2013-12-30 01:17:00,12.0,1.4,30.30,North,0,0.0,0.0,62,0.00,,,0.00,WUHU21623XXSP,2013-12-30 07:17:00,
2013-12-30 01:22:00,11.8,1.4,30.30,North,0,0.0,0.0,62,0.00,,,0.00,WUHU21623XXSP,2013-12-30 07:22:00,
2013-12-30 01:27:00,11.8,1.2,30.30,North,0,0.0,0.0,63,0.00,,,0.00,WUHU21623XXSP,2013-12-30 07:27:00,
2013-12-30 01:32:00,11.7,1.0,30.29,North,0,0.0,0.0,62,0.00,,,0.00,WUHU21623XXSP,2013-12-30 07:32:00,
2013-12-30 01:37:00,11.7,1.4,30.30,North,0,0.0,0.0,63,0.00,,,0.00,WUHU21623XXSP,2013-12-30 07:37:00,
2013-12-30 01:42:00,11.5,1.4,30.30,North,0,0.0,0.0,63,0.00,,,0.00,WUHU21623XXSP,2013-12-30 07:42:00,
2013-12-30 01:47:00,11.5,1.2,30.30,North,0,0.0,0.0,63,0.00,,,0.00,WUHU21623XXSP,2013-12-30 07:47:00,
2013-12-30 01:52:00,11.5,1.2,30.30,North,0,0.0,0.0,63,0.00,,,0.00,WUHU21623XXSP,2013-12-30 07:52:00,
2013-12-30 01:57:00,11.3,1.2,30.30,North,0,0.0,0.0,63,0.00,,,0.00,WUHU21623XXSP,2013-12-30 07:57:00,
2013-12-30 02:02:00,11.3,1.0,30.30,North,0,0.0,0.0,63,0.00,,,0.00,WUHU21623XXSP,2013-12-30 08:02:00,
2013-12-30 02:07:00,11.3,1.0,30.30,North,0,0.0,0.0,63,0.00,,,0.00,WUHU21623XXSP,2013-12-30 08:07:00,
2013-12-30 02:12:00,11.1,1.2,30.30,North,0,0.0,0.0,64,0.00,,,0.00,WUHU21623XXSP,2013-12-30 08:12:00,
2013-12-30 02:17:00,11.1,1.2,30.31,North,0,0.0,0.0,64,0.00,,,0.00,WUHU21623XXSP,2013-12-30 08:17:00,
2013-12-30 02:22:00,11.1,1.2,30.31,North,0,0.0,0.0,64,0.00,,,0.00,WUHU21623XXSP,2013-12-30 08:22:00,
2013-12-30 02:27:00,11.1,1.2,30.31,North,0,0.0,0.0,64,0.00,,,0.00,WUHU21623XXSP,2013-12-30 08:27:00,
2013-12-30 02:32:00,11.1,1.2,30.31,North,0,0.0,0.0,64,0.00,,,0.00,WUHU21623XXSP,2013-12-30 08:32:00,
2013-12-30 02:37:00,11.1,1.2,30.31,North,0,0.0,0.0,64,0.00,,,0.00,WUHU21623XXSP,2013-12-30 08:37:00,
2013-12-30 02:42:00,10.9,1.0,30.32,North,0,0.0,0.0,64,0.00,,,0.00,WUHU21623XXSP,2013-12-30 08:42:00,
2013-12-30 02:47:00,10.9,1.4,30.32,North,0,0.0,0.0,65,0.00,,,0.00,WUHU21623XXSP,2013-12-30 08:47:00,
2013-12-30 02:52:00,10.8,1.2,30.32,North,0,0.0,0.0,65,0.00,,,0.00,WUHU21623XXSP,2013-12-30 08:52:00,
2013-12-30 02:57:00,10.8,1.2,30.32,North,0,0.0,0.0,65,0.00,,,0.00,WUHU21623XXSP,2013-12-30 08:57:00,
2013-12-30 03:02:00,10.6,1.0,30.32,North,0,0.0,0.0,65,0.00,,,0.00,WUHU21623XXSP,2013-12-30 09:02:00,
2013-12-30 03:11:00,10.6,1.3,30.32,North,0,0.0,0.0,66,0.00,,,0.00,WUHU21623XXSP,2013-12-30 09:11:00,
2013-12-30 03:16:00,10.2,1.2,30.32,North,0,0.0,0.0,66,0.00,,,0.00,WUHU21623XXSP,2013-12-30 09:16:00,
2013-12-30 03:21:00,10.2,1.0,30.32,North,0,0.0,0.0,66,0.00,,,0.00,WUHU21623XXSP,2013-12-30 09:21:00,
2013-12-30 03:26:00,10.2,1.0,30.32,North,0,0.0,0.0,66,0.00,,,0.00,WUHU21623XXSP,2013-12-30 09:26:00,
2013-12-30 03:31:00,10.2,1.0,30.33,North,0,0.0,0.0,66,0.00,,,0.00,WUHU21623XXSP,2013-12-30 09:31:00,
2013-12-30 03:36:00,10.0,0.8,30.33,North,0,0.0,0.0,66,0.00,,,0.00,WUHU21623XXSP,2013-12-30 09:36:00,
2013-12-30 03:41:00,10.0,0.8,30.33,North,0,0.0,0.0,66,0.00,,,0.00,WUHU21623XXSP,2013-12-30 09:41:00,
2013-12-30 03:46:00,10.0,0.8,30.33,North,0,0.0,0.0,66,0.00,,,0.00,WUHU21623XXSP,2013-12-30 09:46:00,
2013-12-30 03:51:00,10.0,0.8,30.33,North,0,0.0,0.0,66,0.00,,,0.00,WUHU21623XXSP,2013-12-30 09:51:00,
2013-12-30 03:56:00,10.0,0.8,30.33,North,0,0.0,0.0,66,0.00,,,0.00,WUHU21623XXSP,2013-12-30 09:56:00,
2013-12-30 04:01:00,9.7,0.5,30.32,North,0,0.0,0.0,66,0.00,,,0.00,WUHU21623XXSP,2013-12-30 10:01:00,
2013-12-30 04:06:00,9.7,0.5,30.33,North,0,0.0,0.0,66,0.00,,,0.00,WUHU21623XXSP,2013-12-30 10:06:00,
2013-12-30 04:11:00,9.7,0.5,30.33,North,0,0.0,0.0,66,0.00,,,0.00,WUHU21623XXSP,2013-12-30 10:11:00,
2013-12-30 04:16:00,9.7,0.5,30.33,North,0,0.0,0.0,66,0.00,,,0.00,WUHU21623XXSP,2013-12-30 10:16:00,
2013-12-30 04:21:00,9.7,0.5,30.33,North,0,0.0,0.0,66,0.00,,,0.00,WUHU21623XXSP,2013-12-30 10:21:00,
2013-12-30 04:26:00,9.5,0.7,30.32,North,0,0.0,0.0,67,0.00,,,0.00,WUHU21623XXSP,2013-12-30 10:26:00,
2013-12-30 04:31:00,9.5,0.7,30.33,North,0,0.0,0.0,66,0.00,,,0.00,WUHU21623XXSP,2013-12-30 10:31:00,
2013-12-30 04:36:00,9.3,0.2,30.32,North,0,0.0,0.0,66,0.00,,,0.00,WUHU21623XXSP,2013-12-30 10:36:00,
2013-12-30 04:41:00,9.1,0.0,30.33,North,0,0.0,0.0,66,0.00,,,0.00,WUHU21623XXSP,2013-12-30 10:41:00,
2013-12-30 04:46:00,9.1,0.0,30.33,North,0,0.0,0.0,66,0.00,,,0.00,WUHU21623XXSP,2013-12-30 10:46:00,
2013-12-30 04:51:00,9.1,0.0,30.33,North,0,0.0,0.0,66,0.00,,,0.00,WUHU21623XXSP,2013-12-30 10:51:00,
2013-12-30 04:56:00,9.1,-0.3,30.33,North,0,0.0,0.0,65,0.00,,,0.00,WUHU21623XXSP,2013-12-30 10:56:00,
2013-12-30 05:01:00,9.1,-0.3,30.33,North,0,0.0,0.0,65,0.00,,,0.00,WUHU21623XXSP,2013-12-30 11:01:00,
2013-12-30 05:06:00,9.0,-0.5,30.33,North,0,0.0,0.0,65,0.00,,,0.00,WUHU21623XXSP,2013-12-30 11:06:00,
2013-12-30 05:11:00,9.0,-0.5,30.33,North,0,0.0,0.0,65,0.00,,,0.00,WUHU21623XXSP,2013-12-30 11:11:00,
2013-12-30 05:16:00,9.0,-0.5,30.33,North,0,0.0,0.0,65,0.00,,,0.00,WUHU21623XXSP,2013-12-30 11:16:00,
2013-12-30 05:21:00,8.8,-0.5,30.33,North,0,0.0,0.0,65,0.00,,,0.00,WUHU21623XXSP,2013-12-30 11:21:00,
2013-12-30 05:26:00,8.8,-0.7,30.33,North,0,0.0,0.0,65,0.00,,,0.00,WUHU21623XXSP,2013-12-30 11:26:00,
2013-12-30 05:31:00,8.8,-0.7,30.33,North,0,0.0,0.0,65,0.00,,,0.00,WUHU21623XXSP,2013-12-30 11:31:00,
2013-12-30 05:36:00,8.6,-0.7,30.33,North,0,0.0,0.0,65,0.00,,,0.00,WUHU21623XXSP,2013-12-30 11:36:00,
2013-12-30 05:41:00,8.6,-0.9,30.33,North,0,0.0,0.0,65,0.00,,,0.00,WUHU21623XXSP,2013-12-30 11:41:00,
2013-12-30 05:46:00,8.6,-0.9,30.33,North,0,0.0,0.0,65,0.00,,,0.00,WUHU21623XXSP,2013-12-30 11:46:00,
2013-12-30 05:51:00,8.4,-1.0,30.33,North,0,0.0,0.0,66,0.00,,,0.00,WUHU21623XXSP,2013-12-30 11:51:00,
2013-12-30 05:56:00,8.4,-0.7,30.33,North,0,0.0,0.0,66,0.00,,,0.00,WUHU21623XXSP,2013-12-30 11:56:00,
2013-12-30 06:01:00,8.6,-0.5,30.33,North,0,0.0,0.0,66,0.00,,,0.00,WUHU21623XXSP,2013-12-30 12:01:00,
2013-12-30 06:06:00,8.6,-0.5,30.33,North,0,0.0,0.0,66,0.00,,,0.00,WUHU21623XXSP,2013-12-30 12:06:00,
2013-12-30 06:11:00,8.6,-0.5,30.34,North,0,0.0,0.0,66,0.00,,,0.00,WUHU21623XXSP,2013-12-30 12:11:00,
2013-12-30 06:16:00,8.6,-0.5,30.34,North,0,0.0,0.0,66,0.00,,,0.00,WUHU21623XXSP,2013-12-30 12:16:00,
2013-12-30 06:21:00,8.6,-0.9,30.34,North,0,0.0,0.0,65,0.00,,,0.00,WUHU21623XXSP,2013-12-30 12:21:00,
2013-12-30 06:26:00,8.4,-1.0,30.34,North,0,0.0,0.0,65,0.00,,,0.00,WUHU21623XXSP,2013-12-30 12:26:00,
2013-12-30 06:31:00,8.4,-1.0,30.34,North,0,0.0,0.0,65,0.00,,,0.00,WUHU21623XXSP,2013-12-30 12:31:00,
2013-12-30 06:36:00,8.4,-1.0,30.34,North,0,0.0,0.0,65,0.00,,,0.00,WUHU21623XXSP,2013-12-30 12:36:00,
2013-12-30 06:41:00,8.4,-1.0,30.34,North,0,0.0,0.0,65,0.00,,,0.00,WUHU21623XXSP,2013-12-30 12:41:00,
2013-12-30 06:46:00,8.4,-1.0,30.34,North,0,0.0,0.0,65,0.00,,,0.00,WUHU21623XXSP,2013-12-30 12:46:00,
2013-12-30 06:51:00,8.2,-1.2,30.34,North,0,0.0,0.0,65,0.00,,,0.00,WUHU21623XXSP,2013-12-30 12:51:00,
2013-12-30 06:56:00,8.2,-0.9,30.34,North,0,0.0,0.0,66,0.00,,,0.00,WUHU21623XXSP,2013-12-30 12:56:00,
2013-12-30 07:01:00,8.2,-0.9,30.34,North,0,0.0,0.0,66,0.00,,,0.00,WUHU21623XXSP,2013-12-30 13:01:00,
2013-12-30 07:06:00,8.2,-0.9,30.34,North,0,0.0,0.0,66,0.00,,,0.00,WUHU21623XXSP,2013-12-30 13:06:00,
2013-12-30 07:11:00,8.1,-1.0,30.34,North,0,0.0,0.0,66,0.00,,,0.00,WUHU21623XXSP,2013-12-30 13:11:00,
2013-12-30 07:16:00,8.1,-1.0,30.34,North,0,0.0,0.0,66,0.00,,,0.00,WUHU21623XXSP,2013-12-30 13:16:00,
2013-12-30 07:21:00,8.1,-1.0,30.34,North,0,0.0,0.0,66,0.00,,,0.00,WUHU21623XXSP,2013-12-30 13:21:00,
2013-12-30 07:26:00,8.2,-0.9,30.34,North,0,0.0,0.0,66,0.00,,,0.00,WUHU21623XXSP,2013-12-30 13:26:00,
2013-12-30 07:31:00,8.2,-0.9,30.34,North,0,0.0,0.0,66,0.00,,,0.00,WUHU21623XXSP,2013-12-30 13:31:00,
2013-12-30 07:36:00,8.2,-0.9,30.34,North,0,0.0,0.0,66,0.00,,,0.00,WUHU21623XXSP,2013-12-30 13:36:00,
2013-12-30 07:41:00,8.4,-0.3,30.34,North,0,0.0,0.0,67,0.00,,,0.00,WUHU21623XXSP,2013-12-30 13:41:00,
2013-12-30 07:46:00,8.4,-0.3,30.34,North,0,0.0,0.0,67,0.00,,,0.00,WUHU21623XXSP,2013-12-30 13:46:00,
2013-12-30 07:52:00,9.0,0.0,30.34,North,0,0.0,0.0,67,0.00,,,0.00,WUHU21623XXSP,2013-12-30 13:52:00,
2013-12-30 07:57:00,9.1,0.3,30.34,North,0,0.0,0.0,67,0.00,,,0.00,WUHU21623XXSP,2013-12-30 13:57:00,
2013-12-30 08:02:00,9.5,0.7,30.34,North,0,0.0,0.0,67,0.00,,,0.00,WUHU21623XXSP,2013-12-30 14:02:00,
2013-12-30 08:07:00,10.0,0.8,30.34,North,0,0.0,0.0,67,0.00,,,0.00,WUHU21623XXSP,2013-12-30 14:07:00,
2013-12-30 08:12:00,10.2,1.3,30.34,North,0,0.0,0.0,67,0.00,,,0.00,WUHU21623XXSP,2013-12-30 14:12:00,
2013-12-30 08:17:00,10.6,1.3,30.34,North,0,0.0,0.0,67,0.00,,,0.00,WUHU21623XXSP,2013-12-30 14:17:00,
2013-12-30 08:22:00,11.1,2.2,30.34,North,0,0.0,0.0,67,0.00,,,0.00,WUHU21623XXSP,2013-12-30 14:22:00,
2013-12-30 08:27:00,11.3,2.4,30.34,North,0,0.0,0.0,67,0.00,,,0.00,WUHU21623XXSP,2013-12-30 14:27:00,
2013-12-30 08:32:00,11.5,2.2,30.34,North,0,0.0,0.0,66,0.00,,,0.00,WUHU21623XXSP,2013-12-30 14:32:00,
2013-12-30 08:37:00,11.8,2.9,30.34,North,0,0.0,0.0,67,0.00,,,0.00,WUHU21623XXSP,2013-12-30 14:37:00,
2013-12-30 08:42:00,12.0,2.6,30.34,North,0,0.0,0.0,66,0.00,,,0.00,WUHU21623XXSP,2013-12-30 14:42:00,
2013-12-30 08:47:00,12.2,2.9,30.33,North,0,0.0,0.0,66,0.00,,,0.00,WUHU21623XXSP,2013-12-30 14:47:00,
2013-12-30 08:52:00,12.4,2.8,30.34,North,0,0.0,0.0,65,0.00,,,0.00,WUHU21623XXSP,2013-12-30 14:52:00,
2013-12-30 08:57:00,12.6,2.9,30.34,North,0,0.0,0.0,65,0.00,,,0.00,WUHU21623XXSP,2013-12-30 14:57:00,
2013-12-30 09:02:00,12.7,2.8,30.33,North,0,0.0,0.0,64,0.00,,,0.00,WUHU21623XXSP,2013-12-30 15:02:00,
2013-12-30 09:07:00,12.7,2.8,30.33,North,0,0.0,0.0,64,0.00,,,0.00,WUHU21623XXSP,2013-12-30 15:07:00,
2013-12-30 09:12:00,12.9,2.9,30.34,North,0,0.0,0.0,64,0.00,,,0.00,WUHU21623XXSP,2013-12-30 15:12:00,
2013-12-30 09:17:00,13.1,3.1,30.34,North,0,0.0,0.0,64,0.00,,,0.00,WUHU21623XXSP,2013-12-30 15:17:00,
2013-12-30 09:22:00,13.3,3.3,30.33,North,0,0.0,0.0,64,0.00,,,0.00,WUHU21623XXSP,2013-12-30 15:22:00,
2013-12-30 09:27:00,13.3,3.3,30.34,North,0,0.0,0.0,64,0.00,,,0.00,WUHU21623XXSP,2013-12-30 15:27:00,
2013-12-30 09:32:00,13.8,3.5,30.34,North,0,0.0,0.0,63,0.00,,,0.00,WUHU21623XXSP,2013-12-30 15:32:00,
2013-12-30 09:37:00,13.8,3.5,30.34,North,0,0.0,0.0,63,0.00,,,0.00,WUHU21623XXSP,2013-12-30 15:37:00,
2013-12-30 09:42:00,14.2,3.8,30.34,North,0,0.0,0.0,63,0.00,,,0.00,WUHU21623XXSP,2013-12-30 15:42:00,
2013-12-30 09:47:00,14.2,3.8,30.34,North,0,0.0,0.0,63,0.00,,,0.00,WUHU21623XXSP,2013-12-30 15:47:00,
2013-12-30 09:52:00,14.2,3.8,30.34,North,0,0.0,0.0,63,0.00,,,0.00,WUHU21623XXSP,2013-12-30 15:52:00,
2013-12-30 09:57:00,14.2,3.8,30.33,North,0,0.0,0.0,63,0.00,,,0.00,WUHU21623XXSP,2013-12-30 15:57:00,
2013-12-30 10:02:00,14.2,3.8,30.33,North,0,0.0,0.0,61,0.00,,,0.00,WUHU21623XXSP,2013-12-30 16:02:00,
2013-12-30 10:07:00,15.6,4.5,30.33,North,0,0.0,0.0,61,0.00,,,0.00,WUHU21623XXSP,2013-12-30 16:07:00,
2013-12-30 10:12:00,15.6,4.5,30.33,North,0,0.0,0.0,61,0.00,,,0.00,WUHU21623XXSP,2013-12-30 16:12:00,
2013-12-30 10:17:00,16.3,5.2,30.33,North,0,0.0,0.0,61,0.00,,,0.00,WUHU21623XXSP,2013-12-30 16:17:00,
2013-12-30 10:22:00,16.3,5.2,30.33,North,0,0.0,0.0,61,0.00,,,0.00,WUHU21623XXSP,2013-12-30 16:22:00,
2013-12-30 10:27:00,16.3,5.2,30.32,North,0,0.0,0.0,61,0.00,,,0.00,WUHU21623XXSP,2013-12-30 16:27:00,
2013-12-30 10:32:00,17.2,6.1,30.32,North,0,0.0,0.0,61,0.00,,,0.00,WUHU21623XXSP,2013-12-30 16:32:00,
2013-12-30 10:37:00,17.4,6.2,30.31,North,0,0.0,0.0,61,0.00,,,0.00,WUHU21623XXSP,2013-12-30 16:37:00,
2013-12-30 10:42:00,17.4,6.2,30.31,North,0,0.0,0.0,61,0.00,,,0.00,WUHU21623XXSP,2013-12-30 16:42:00,
2013-12-30 10:47:00,17.4,6.2,30.31,North,0,0.0,0.0,61,0.00,,,0.00,WUHU21623XXSP,2013-12-30 16:47:00,
2013-12-30 10:52:00,18.3,6.3,30.31,North,0,0.0,0.0,59,0.00,,,0.00,WUHU21623XXSP,2013-12-30 16:52:00,
2013-12-30 10:57:00,18.3,6.3,30.31,North,0,0.0,0.0,59,0.00,,,0.00,WUHU21623XXSP,2013-12-30 16:57:00,
2013-12-30 11:02:00,18.3,6.3,30.31,North,0,0.0,0.0,59,0.00,,,0.00,WUHU21623XXSP,2013-12-30 17:02:00,
2013-12-30 11:07:00,18.3,6.3,30.31,North,0,0.0,0.0,59,0.00,,,0.00,WUHU21623XXSP,2013-12-30 17:07:00,
2013-12-30 11:12:00,18.3,6.3,30.31,North,0,0.0,0.0,59,0.00,,,0.00,WUHU21623XXSP,2013-12-30 17:12:00,
2013-12-30 11:17:00,18.3,6.3,30.31,North,0,0.0,0.0,59,0.00,,,0.00,WUHU21623XXSP,2013-12-30 17:17:00,
2013-12-30 11:36:00,21.4,8.0,30.28,North,0,0.0,0.0,56,0.00,,,0.00,WUHU21623XXSP,2013-12-30 17:36:00,
2013-12-30 11:41:00,21.7,7.9,30.27,North,0,0.0,0.0,55,0.00,,,0.00,WUHU21623XXSP,2013-12-30 17:41:00,
2013-12-30 11:46:00,21.7,7.9,30.26,North,0,0.0,0.0,55,0.00,,,0.00,WUHU21623XXSP,2013-12-30 17:46:00,
2013-12-30 11:51:00,21.7,7.9,30.26,North,0,0.0,0.0,54,0.00,,,0.00,WUHU21623XXSP,2013-12-30 17:51:00,
2013-12-30 11:56:00,22.6,8.4,30.25,North,0,0.0,0.0,54,0.00,,,0.00,WUHU21623XXSP,2013-12-30 17:56:00,
2013-12-30 12:01:00,23.2,8.7,30.25,North,0,0.0,0.0,53,0.00,,,0.00,WUHU21623XXSP,2013-12-30 18:01:00,
2013-12-30 12:06:00,23.5,8.8,30.25,North,0,0.0,0.0,53,0.00,,,0.00,WUHU21623XXSP,2013-12-30 18:06:00,
2013-12-30 12:11:00,23.5,8.8,30.25,North,0,0.0,0.0,53,0.00,,,0.00,WUHU21623XXSP,2013-12-30 18:11:00,
2013-12-30 12:16:00,23.5,8.8,30.25,North,0,0.0,0.0,53,0.00,,,0.00,WUHU21623XXSP,2013-12-30 18:16:00,
2013-12-30 12:21:00,23.9,8.8,30.25,North,0,0.0,0.0,52,0.00,,,0.00,WUHU21623XXSP,2013-12-30 18:21:00,
2013-12-30 12:26:00,24.1,8.5,30.25,North,0,0.0,0.0,51,0.00,,,0.00,WUHU21623XXSP,2013-12-30 18:26:00,
2013-12-30 12:31:00,24.1,8.5,30.24,North,0,0.0,0.0,51,0.00,,,0.00,WUHU21623XXSP,2013-12-30 18:31:00,
2013-12-30 12:36:00,24.4,8.9,30.24,North,0,0.0,0.0,51,0.00,,,0.00,WUHU21623XXSP,2013-12-30 18:36:00,
2013-12-30 12:41:00,24.4,8.9,30.24,North,0,0.0,0.0,51,0.00,,,0.00,WUHU21623XXSP,2013-12-30 18:41:00,
2013-12-30 12:46:00,24.4,8.5,30.25,North,0,0.0,0.0,50,0.00,,,0.00,WUHU21623XXSP,2013-12-30 18:46:00,
2013-12-30 12:51:00,24.4,8.9,30.25,North,0,0.0,0.0,51,0.00,,,0.00,WUHU21623XXSP,2013-12-30 18:51:00,
2013-12-30 12:56:00,24.4,8.9,30.26,North,0,0.0,0.0,51,0.00,,,0.00,WUHU21623XXSP,2013-12-30 18:56:00,
2013-12-30 13:01:00,24.4,8.9,30.25,North,0,0.0,0.0,51,0.00,,,0.00,WUHU21623XXSP,2013-12-30 19:01:00,
2013-12-30 13:06:00,24.6,8.6,30.24,North,0,0.0,0.0,50,0.00,,,0.00,WUHU21623XXSP,2013-12-30 19:06:00,
2013-12-30 13:11:00,25.0,8.9,30.24,North,0,0.0,0.0,50,0.00,,,0.00,WUHU21623XXSP,2013-12-30 19:11:00,
2013-12-30 13:16:00,25.0,8.9,30.23,North,0,0.0,0.0,50,0.00,,,0.00,WUHU21623XXSP,2013-12-30 19:16:00,
2013-12-30 13:21:00,25.2,9.1,30.22,North,0,0.0,0.0,50,0.00,,,0.00,WUHU21623XXSP,2013-12-30 19:21:00,
2013-12-30 13:26:00,25.5,9.1,30.23,North,0,0.0,0.0,50,0.00,,,0.00,WUHU21623XXSP,2013-12-30 19:26:00,
2013-12-30 13:31:00,25.5,9.4,30.23,North,0,0.0,0.0,50,0.00,,,0.00,WUHU21623XXSP,2013-12-30 19:31:00,
2013-12-30 13:36:00,25.5,9.4,30.23,North,0,0.0,0.0,50,0.00,,,0.00,WUHU21623XXSP,2013-12-30 19:36:00,
2013-12-30 13:41:00,25.5,9.4,30.23,North,0,0.0,0.0,50,0.00,,,0.00,WUHU21623XXSP,2013-12-30 19:41:00,
2013-12-30 13:46:00,25.5,9.4,30.23,North,0,0.0,0.0,50,0.00,,,0.00,WUHU21623XXSP,2013-12-30 19:46:00,
2013-12-30 13:51:00,25.5,9.4,30.23,North,0,0.0,0.0,50,0.00,,,0.00,WUHU21623XXSP,2013-12-30 19:51:00,
2013-12-30 13:56:00,25.5,9.4,30.23,North,0,0.0,0.0,50,0.00,,,0.00,WUHU21623XXSP,2013-12-30 19:56:00,
2013-12-30 16:16:00,26.4,10.2,30.21,North,0,0.0,0.0,50,0.00,,,0.00,WUHU21623XXSP,2013-12-30 22:16:00,
2013-12-30 16:22:00,26.4,10.2,30.21,North,0,0.0,0.0,50,0.00,,,0.00,WUHU21623XXSP,2013-12-30 22:22:00,
2013-12-30 16:27:00,26.4,10.2,30.21,North,0,0.0,0.0,50,0.00,,,0.00,WUHU21623XXSP,2013-12-30 22:27:00,
2013-12-30 16:32:00,26.4,10.2,30.21,North,0,0.0,0.0,50,0.00,,,0.00,WUHU21623XXSP,2013-12-30 22:32:00,
2013-12-30 18:49:00,25.2,11.2,30.20,North,0,0.0,0.0,55,0.00,,,0.00,WUHU21623XXSP,2013-12-31 00:49:00,
2013-12-30 18:54:00,25.2,11.2,30.20,North,0,0.0,0.0,55,0.00,,,0.00,WUHU21623XXSP,2013-12-31 00:54:00,
2013-12-30 18:59:00,25.2,11.2,30.20,North,0,0.0,0.0,55,0.00,,,0.00,WUHU21623XXSP,2013-12-31 00:59:00,
2013-12-30 19:04:00,25.2,11.2,30.20,North,0,0.0,0.0,55,0.00,,,0.00,WUHU21623XXSP,2013-12-31 01:04:00,
2013-12-30 19:09:00,25.2,11.2,30.20,North,0,0.0,0.0,55,0.00,,,0.00,WUHU21623XXSP,2013-12-31 01:09:00,
2013-12-30 19:49:00,25.9,12.2,30.22,North,0,0.0,0.0,56,0.00,,,0.00,WUHU21623XXSP,2013-12-31 01:49:00,
2013-12-30 19:54:00,25.9,12.2,30.21,North,0,0.0,0.0,56,0.00,,,0.00,WUHU21623XXSP,2013-12-31 01:54:00,
2013-12-30 19:59:00,25.9,12.2,30.21,North,0,0.0,0.0,56,0.00,,,0.00,WUHU21623XXSP,2013-12-31 01:59:00,
2013-12-30 20:04:00,25.9,12.2,30.22,North,0,0.0,0.0,56,0.00,,,0.00,WUHU21623XXSP,2013-12-31 02:04:00,
2013-12-30 20:09:00,25.9,12.2,30.22,North,0,0.0,0.0,56,0.00,,,0.00,WUHU21623XXSP,2013-12-31 02:09:00,
2013-12-30 20:15:00,25.9,12.2,30.22,North,0,0.0,0.0,56,0.00,,,0.00,WUHU21623XXSP,2013-12-31 02:15:00,
2013-12-30 20:20:00,26.1,12.4,30.22,North,0,0.0,0.0,56,0.00,,,0.00,WUHU21623XXSP,2013-12-31 02:20:00,
2013-12-30 20:25:00,26.1,12.4,30.22,North,0,0.0,0.0,56,0.00,,,0.00,WUHU21623XXSP,2013-12-31 02:25:00,
2013-12-30 20:30:00,26.2,12.6,30.22,North,0,0.0,0.0,56,0.00,,,0.00,WUHU21623XXSP,2013-12-31 02:30:00,
2013-12-30 20:35:00,26.2,12.6,30.22,North,0,0.0,0.0,56,0.00,,,0.00,WUHU21623XXSP,2013-12-31 02:35:00,
2013-12-30 20:40:00,26.2,12.6,30.22,North,0,0.0,0.0,56,0.00,,,0.00,WUHU21623XXSP,2013-12-31 02:40:00,
2013-12-30 20:45:00,26.4,12.7,30.22,North,0,0.0,0.0,56,0.00,,,0.00,WUHU21623XXSP,2013-12-31 02:45:00,
2013-12-30 20:50:00,26.4,12.7,30.22,North,0,0.0,0.0,56,0.00,,,0.00,WUHU21623XXSP,2013-12-31 02:50:00,
2013-12-30 20:55:00,26.4,12.7,30.22,North,0,0.0,0.0,56,0.00,,,0.00,WUHU21623XXSP,2013-12-31 02:55:00,
2013-12-30 21:00:00,26.6,12.7,30.23,North,0,0.0,0.0,56,0.00,,,0.00,WUHU21623XXSP,2013-12-31 03:00:00,
2013-12-30 21:05:00,26.6,12.9,30.23,North,0,0.0,0.0,56,0.00,,,0.00,WUHU21623XXSP,2013-12-31 03:05:00,
2013-12-30 21:10:00,26.8,13.1,30.23,North,0,0.0,0.0,56,0.00,,,0.00,WUHU21623XXSP,2013-12-31 03:10:00,
2013-12-30 21:15:00,27.0,13.2,30.23,North,0,0.0,0.0,56,0.00,,,0.00,WUHU21623XXSP,2013-12-31 03:15:00,
2013-12-30 21:20:00,27.1,13.2,30.23,North,0,0.0,0.0,56,0.00,,,0.00,WUHU21623XXSP,2013-12-31 03:20:00,
2013-12-30 21:25:00,27.1,13.4,30.23,North,0,0.0,0.0,56,0.00,,,0.00,WUHU21623XXSP,2013-12-31 03:25:00,
2013-12-30 21:30:00,27.3,13.4,30.23,North,0,0.0,0.0,56,0.00,,,0.00,WUHU21623XXSP,2013-12-31 03:30:00,
2013-12-30 21:35:00,27.3,13.6,30.23,North,0,0.0,0.0,56,0.00,,,0.00,WUHU21623XXSP,2013-12-31 03:35:00,
2013-12-30 21:40:00,27.5,13.8,30.23,North,0,0.0,0.0,56,0.00,,,0.00,WUHU21623XXSP,2013-12-31 03:40:00,
2013-12-30 21:45:00,27.7,14.0,30.23,North,0,0.0,0.0,56,0.00,,,0.00,WUHU21623XXSP,2013-12-31 03:45:00,
2013-12-30 21:50:00,27.9,14.1,30.23,North,0,0.0,0.0,56,0.00,,,0.00,WUHU21623XXSP,2013-12-31 03:50:00,
2013-12-30 21:55:00,28.0,14.3,30.23,North,0,0.0,0.0,56,0.00,,,0.00,WUHU21623XXSP,2013-12-31 03:55:00,
2013-12-30 22:00:00,28.0,14.3,30.24,North,0,0.0,0.0,56,0.00,,,0.00,WUHU21623XXSP,2013-12-31 04:00:00,
2013-12-30 22:05:00,28.2,14.5,30.24,North,0,0.0,0.0,56,0.00,,,0.00,WUHU21623XXSP,2013-12-31 04:05:00,
2013-12-30 22:10:00,28.2,14.5,30.23,North,0,0.0,0.0,56,0.00,,,0.00,WUHU21623XXSP,2013-12-31 04:10:00,
2013-12-30 22:15:00,28.2,14.5,30.24,North,0,0.0,0.0,56,0.00,,,0.00,WUHU21623XXSP,2013-12-31 04:15:00,
2013-12-30 22:20:00,28.6,14.8,30.24,North,0,0.0,0.0,56,0.00,,,0.00,WUHU21623XXSP,2013-12-31 04:20:00,
2013-12-30 22:25:00,28.6,14.8,30.23,North,0,0.0,0.0,56,0.00,,,0.00,WUHU21623XXSP,2013-12-31 04:25:00,
2013-12-30 22:30:00,28.8,15.0,30.23,North,0,0.0,0.0,56,0.00,,,0.00,WUHU21623XXSP,2013-12-31 04:30:00,
2013-12-30 22:35:00,28.8,15.0,30.23,North,0,0.0,0.0,56,0.00,,,0.00,WUHU21623XXSP,2013-12-31 04:35:00,
2013-12-30 22:40:00,28.9,15.2,30.23,North,0,0.0,0.0,56,0.00,,,0.00,WUHU21623XXSP,2013-12-31 04:40:00,
2013-12-30 22:45:00,28.9,15.2,30.24,North,0,0.0,0.0,56,0.00,,,0.00,WUHU21623XXSP,2013-12-31 04:45:00,
2013-12-30 22:50:00,29.1,15.3,30.24,North,0,0.0,0.0,56,0.00,,,0.00,WUHU21623XXSP,2013-12-31 04:50:00,
2013-12-30 22:55:00,29.1,15.3,30.24,North,0,0.0,0.0,56,0.00,,,0.00,WUHU21623XXSP,2013-12-31 04:55:00,
2013-12-30 23:00:00,29.1,15.3,30.23,North,0,0.0,0.0,56,0.00,,,0.00,WUHU21623XXSP,2013-12-31 05:00:00,
2013-12-30 23:02:00,28.9,15.2,30.23,North,0,0.0,0.0,56,0.00,,,0.00,WUHU21623XXSP,2013-12-31 05:02:00,
2013-12-30 23:05:00,28.9,15.2,30.23,North,0,0.0,0.0,56,0.00,,,0.00,WUHU21623XXSP,2013-12-31 05:05:00,
2013-12-30 23:10:00,28.6,15.3,30.23,North,0,0.0,0.0,57,0.00,,,0.00,WUHU21623XXSP,2013-12-31 05:10:00,
2013-12-30 23:15:00,28.4,15.3,30.23,North,0,0.0,0.0,57,0.00,,,0.00,WUHU21623XXSP,2013-12-31 05:15:00,
2013-12-30 23:20:00,28.2,14.9,30.23,North,0,0.0,0.0,57,0.00,,,0.00,WUHU21623XXSP,2013-12-31 05:20:00,
2013-12-30 23:25:00,27.7,14.4,30.23,North,0,0.0,0.0,57,0.00,,,0.00,WUHU21623XXSP,2013-12-31 05:25:00,
2013-12-30 23:30:00,27.5,14.6,30.23,North,0,0.0,0.0,58,0.00,,,0.00,WUHU21623XXSP,2013-12-31 05:30:00,
2013-12-30 23:32:00,27.3,14.6,30.24,North,0,0.0,0.0,58,0.00,,,0.00,WUHU21623XXSP,2013-12-31 05:32:00,
2013-12-30 23:37:00,27.1,14.3,30.24,North,0,0.0,0.0,58,0.00,,,0.00,WUHU21623XXSP,2013-12-31 05:37:00,
2013-12-30 23:42:00,26.8,14.1,30.24,North,0,0.0,0.0,59,0.00,,,0.00,WUHU21623XXSP,2013-12-31 05:42:00,
2013-12-30 23:45:00,26.8,14.3,30.24,North,0,0.0,0.0,59,0.00,,,0.00,WUHU21623XXSP,2013-12-31 05:45:00,
2013-12-30 23:50:00,26.6,14.1,30.24,North,0,0.0,0.0,59,0.00,,,0.00,WUHU21623XXSP,2013-12-31 05:50:00,
2013-12-30 23:55:00,26.4,14.5,30.24,North,0,0.0,0.0,60,0.00,,,0.00,WUHU21623XXSP,2013-12-31 05:55:00,